Regional Weather Roundup
Issued by NWS

Home | Current Version | Previous Version | Graphics & Text | Print | Product List | Glossary On
Versions: 1 2 3 4 5 6 7 8 9 10 11 12 13 14 15 16 17 18 19 20 21 22 23 24 25 26 27 28 29 30 31 32 33 34 35 36 37 38 39 40 41 42 43 44 45 46 47 48 49 50
000
ASUS43 KTOP 301408
RWRKS

WEATHER ROUNDUP FOR KANSAS
NATIONAL WEATHER SERVICE GOODLAND KS
900 AM CDT TUE AUG 30 2016

NOTE:  "FAIR" INDICATES FEW OR NO CLOUDS BELOW 12,000 FEET WITH NO
SIGNIFICANT WEATHER AND/OR OBSTRUCTIONS TO VISIBILITY.

KSZ001>006-013>018-027>032-041>047-301500-
NORTHWEST KANSAS

CITY           SKY/WX    TMP DP  RH WIND       PRES   REMARKS
GOODLAND       CLOUDY    63  62  97 CALM      30.27S
HAYS           CLOUDY    68  61  77 SE5       30.23R
HILL CITY      CLOUDY    67  66  97 CALM      30.24S FOG
RUSSELL        PTSUNNY   70  68  93 E5        30.20R
$$

KSZ061>065-074>080-084>089-301500-
SOUTHWEST KANSAS

CITY           SKY/WX    TMP DP  RH WIND       PRES   REMARKS
DODGE CITY     CLOUDY    68  67  96 NE5       30.24R FOG
ELKHART          N/A     65  62  90 SW3         N/A
GARDEN CITY    CLOUDY    66  65  96 E5        30.25R FOG
GREAT BEND     CLOUDY    70  63  78 E6        30.21S
LIBERAL        CLOUDY    70  63  78 NE5       30.26R
PRATT          CLOUDY    67  66  94 N6        30.20S
$$

KSZ066>073-081>083-090>101-301500-
SOUTHEAST KANSAS

CITY           SKY/WX    TMP DP  RH WIND       PRES   REMARKS
CHANUTE        SUNNY     77  72  84 E6        30.15S
COFFEYVILLE    SUNNY     75  72  90 NE5       30.14S
HUTCHINSON     CLOUDY    73  69  87 NE8       30.18S
MEDICINE LODGE   N/A     73  70  90 N3        30.17S
NEWTON         MOSUNNY   76  71  85 E7        30.19S
PARSONS        SUNNY     77  71  82 VRB3      30.16S
WICHITA INTL   MOSUNNY   77  70  79 E8        30.16S
WICHITA JABRA  SUNNY     75  71  87 E6        30.17S
WICHITA MCCONL SUNNY     76  69  79 SE6       30.17R
WINFIELD       SUNNY     76  70  82 E3        30.16S
$$

KSZ007>012-019>026-033>040-048>060-102>105-301500-
NORTHEAST KANSAS

CITY           SKY/WX    TMP DP  RH WIND       PRES   REMARKS
CONCORDIA      PTSUNNY   69  68  96 NE3       30.20S
EMPORIA        MOSUNNY   74  72  93 SE6       30.17S
LAWRENCE       MOSUNNY   72  72 100 CALM      30.16S
MANHATTAN      MOSUNNY   73  69  87 CALM      30.17F
MARYSVILLE     CLOUDY    70  68  94 N5        30.20S
OLATHE IND     SUNNY     73  70  90 CALM      30.17R
OLATHE EXE     MOSUNNY   70  69  97 CALM      30.16S
SALINA         LGT RAIN  73  70  90 E6        30.18F
TOPEKA BILLARD MOSUNNY   75  71  87 N3        30.16R
TOPEKA FORBES  CLOUDY    76  70  82 CALM      30.16S
$$




USA.gov is the U.S. government's official web portal to all federal, state and local government web resources and services.